| time (UTC) | temp F | wind direction | speed knots | gust knots | rain 1hr in | rain 24hr in | rain mn in | humidity % | barometer mb |
| 20260504050727 | 43 | 327 | 0.0 | 0.0 | 0.05 | 0.09 | 0.05 | 77 | 1015.5 |
| 20260504050227 | 44 | 327 | 0.0 | 0.0 | 0.04 | 0.08 | 0.04 | 76 | 1015.4 |
| 20260504045727 | 43 | 327 | 0.0 | 0.0 | 0.04 | 0.08 | 0.04 | 75 | 1015.6 |
| 20260504045227 | 44 | 327 | 0.0 | 0.0 | 0.03 | 0.07 | 0.03 | 74 | 1015.6 |
| 20260504045014 | 44 | 327 | 0.0 | 0.0 | 0.03 | 0.07 | 0.03 | 73 | 1015.5 |
| 20260504044728 | 44 | 327 | 0.0 | 0.0 | 0.03 | 0.07 | 0.03 | 73 | 1015.6 |
| 20260504044227 | 44 | 327 | 0.0 | 0.0 | 0.03 | 0.07 | 0.03 | 73 | 1015.5 |
| 20260504043728 | 44 | 327 | 0.0 | 0.0 | 0.02 | 0.06 | 0.02 | 71 | 1015.5 |
| 20260504043227 | 45 | 327 | 0.0 | 0.0 | 0.01 | 0.05 | 0.01 | 70 | 1015.5 |
| 20260504042728 | 45 | 327 | 0.0 | 0.0 | 0.00 | 0.04 | 0.00 | 70 | 1015.5 |
| 20260504042227 | 45 | 327 | 0.0 | 0.0 | 0.01 | 0.04 | 0.00 | 67 | 1015.4 |
| 20260504041727 | 45 | 327 | 0.0 | 0.0 | 0.03 | 0.04 | 0.00 | 68 | 1015.3 |
| 20260504041228 | 45 | 327 | 0.0 | 0.0 | 0.03 | 0.04 | 0.00 | 68 | 1015.2 |
| 20260504040727 | 45 | 327 | 0.0 | 0.0 | 0.03 | 0.04 | 0.00 | 68 | 1015.0 |
| 20260504040227 | 45 | 327 | 0.0 | 0.0 | 0.03 | 0.04 | 0.00 | 68 | 1015.2 |
| 20260504035729 | 45 | 327 | 0.0 | 0.0 | 0.03 | 0.04 | 0.00 | 70 | 1015.2 |
| 20260504035227 | 45 | 327 | 0.0 | 0.0 | 0.03 | 0.04 | 0.00 | 69 | 1015.2 |
| 20260504034728 | 45 | 327 | 0.0 | 0.0 | 0.03 | 0.04 | 0.05 | 67 | 1015.2 |
| 20260504034227 | 45 | 327 | 0.0 | 0.0 | 0.03 | 0.04 | 0.05 | 67 | 1015.1 |
| 20260504033727 | 46 | 327 | 0.0 | 0.0 | 0.03 | 0.04 | 0.05 | 68 | 1015.1 |
| 20260504033227 | 46 | 327 | 0.0 | 0.0 | 0.03 | 0.05 | 0.05 | 67 | 1015.0 |
| 20260504032728 | 46 | 327 | 0.0 | 0.0 | 0.03 | 0.05 | 0.05 | 67 | 1015.0 |
| 20260504032227 | 46 | 327 | 0.0 | 0.0 | 0.01 | 0.03 | 0.03 | 68 | 1015.0 |
| 20260504031727 | 46 | 327 | 0.0 | 0.0 | 0.00 | 0.02 | 0.02 | 68 | 1014.9 |
| 20260504031227 | 46 | 327 | 0.0 | 0.0 | 0.00 | 0.02 | 0.02 | 68 | 1014.9 |
| 20260504030727 | 46 | 327 | 0.0 | 0.0 | 0.00 | 0.02 | 0.02 | 68 | 1014.9 |
| 20260504030227 | 47 | 327 | 0.0 | 0.0 | 0.00 | 0.02 | 0.02 | 64 | 1014.9 |
| 20260504025727 | 47 | 327 | 0.0 | 0.0 | 0.00 | 0.02 | 0.02 | 64 | 1014.9 |
| 20260504025227 | 47 | 327 | 0.0 | 0.0 | 0.00 | 0.02 | 0.02 | 62 | 1014.9 |
| 20260504024227 | 47 | 327 | 0.0 | 0.0 | 0.00 | 0.02 | 0.02 | 63 | 1014.9 |
| 20260504023727 | 47 | 327 | 0.0 | 0.0 | 0.00 | 0.02 | 0.02 | 63 | 1014.8 |
| 20260504023230 | 47 | 327 | 0.0 | 0.0 | 0.00 | 0.08 | 0.02 | 63 | 1014.8 |
| 20260504022727 | 47 | 327 | 0.0 | 0.0 | 0.00 | 0.08 | 0.02 | 61 | 1014.8 |
| 20260504022227 | 48 | 327 | 0.0 | 0.0 | 0.00 | 0.08 | 0.02 | 61 | 1014.8 |
| 20260504021727 | 47 | 327 | 0.0 | 0.0 | 0.00 | 0.08 | 0.02 | 61 | 1014.8 |
| 20260504021227 | 48 | 327 | 0.0 | 0.0 | 0.00 | 0.08 | 0.02 | 60 | 1014.7 |
| 20260504020727 | 47 | 327 | 0.0 | 0.0 | 0.00 | 0.08 | 0.02 | 62 | 1014.8 |
| 20260504020228 | 48 | 327 | 0.0 | 0.0 | 0.00 | 0.08 | 0.02 | 61 | 1014.8 |
| 20260504015727 | 49 | 327 | 0.0 | 0.0 | 0.00 | 0.08 | 0.02 | 59 | 1014.8 |
| 20260504015227 | 49 | 327 | 0.0 | 0.0 | 0.00 | 0.08 | 0.02 | 57 | 1014.8 |
| 20260504014727 | 49 | 327 | 0.0 | 0.0 | 0.00 | 0.08 | 0.02 | 56 | 1014.8 |
| 20260504014229 | 49 | 327 | 0.0 | 0.0 | 0.00 | 0.08 | 0.02 | 55 | 1014.7 |
| 20260504013727 | 50 | 327 | 0.0 | 0.0 | 0.00 | 0.08 | 0.02 | 54 | 1014.7 |
| 20260504013227 | 50 | 327 | 0.0 | 0.0 | 0.00 | 0.11 | 0.02 | 54 | 1014.7 |
| 20260504012728 | 50 | 327 | 0.0 | 0.0 | 0.00 | 0.11 | 0.02 | 53 | 1014.7 |
| 20260504011728 | 51 | 327 | 0.0 | 0.0 | 0.00 | 0.11 | 0.02 | 50 | 1014.5 |
| 20260504011228 | 51 | 327 | 0.0 | 0.0 | 0.00 | 0.11 | 0.02 | 49 | 1014.5 |
| 20260504010727 | 52 | 327 | 0.0 | 0.0 | 0.00 | 0.11 | 0.02 | 50 | 1014.5 |
| 20260504010227 | 52 | 327 | 0.0 | 0.0 | 0.00 | 0.11 | 0.02 | 49 | 1014.4 |
| 20260504005727 | 52 | 327 | 0.0 | 0.0 | 0.00 | 0.11 | 0.02 | 49 | 1014.4 |
| 20260504005228 | 52 | 327 | 0.0 | 0.0 | 0.00 | 0.11 | 0.02 | 49 | 1014.4 |
| 20260504004727 | 53 | 327 | 0.0 | 0.0 | 0.00 | 0.11 | 0.02 | 48 | 1014.3 |
| 20260504004227 | 54 | 327 | 0.0 | 0.0 | 0.00 | 0.11 | 0.02 | 47 | 1014.3 |
| 20260504003728 | 54 | 327 | 0.0 | 0.0 | 0.00 | 0.11 | 0.02 | 44 | 1014.2 |
| 20260504003227 | 54 | 327 | 0.0 | 0.0 | 0.00 | 0.12 | 0.02 | 42 | 1014.2 |
| 20260504002727 | 55 | 327 | 0.0 | 0.0 | 0.00 | 0.12 | 0.02 | 42 | 1014.1 |
| 20260504002227 | 56 | 327 | 0.0 | 0.0 | 0.00 | 0.12 | 0.02 | 41 | 1014.0 |
| 20260504001730 | 56 | 327 | 0.0 | 0.0 | 0.00 | 0.12 | 0.02 | 40 | 1014.0 |
| 20260504001229 | 57 | 327 | 0.0 | 0.0 | 0.00 | 0.12 | 0.02 | 39 | 1014.0 |
| 20260504000727 | 57 | 327 | 0.0 | 0.0 | 0.00 | 0.12 | 0.02 | 38 | 1013.9 |
| 20260504000227 | 57 | 327 | 0.0 | 0.0 | 0.00 | 0.12 | 0.02 | 39 | 1013.9 |
| 20260503235727 | 58 | 327 | 0.0 | 0.0 | 0.00 | 0.12 | 0.02 | 37 | 1013.9 |
| 20260503235227 | 58 | 327 | 0.0 | 0.0 | 0.00 | 0.12 | 0.02 | 38 | 1013.8 |
| 20260503234728 | 58 | 327 | 0.0 | 1.7 | 0.00 | 0.12 | 0.02 | 36 | 1013.7 |
| 20260503234227 | 58 | 46 | 0.9 | 1.7 | 0.00 | 0.12 | 0.02 | 35 | 1013.6 |
| 20260503233727 | 59 | 8 | 0.0 | 4.3 | 0.00 | 0.12 | 0.02 | 35 | 1013.6 |
| 20260503233227 | 58 | 70 | 0.0 | 4.3 | 0.00 | 0.12 | 0.02 | 34 | 1013.5 |
| 20260503232733 | 59 | 9 | 0.0 | 1.7 | 0.00 | 0.12 | 0.02 | 35 | 1013.5 |
| 20260503232232 | 59 | 0 | 0.0 | 2.6 | 0.00 | 0.12 | 0.02 | 35 | 1013.5 |
| 20260503231732 | 59 | 40 | 0.0 | 2.6 | 0.00 | 0.12 | 0.02 | 34 | 1013.5 |
| 20260503231233 | 59 | 8 | 0.0 | 4.3 | 0.00 | 0.12 | 0.02 | 33 | 1013.5 |
| 20260503225731 | 59 | 271 | 0.0 | 3.5 | 0.00 | 0.12 | 0.02 | 33 | 1013.5 |
| 20260503225230 | 59 | 291 | 0.9 | 7.8 | 0.00 | 0.12 | 0.02 | 32 | 1013.5 |
| 20260503224730 | 60 | 0 | 0.9 | 3.5 | 0.00 | 0.12 | 0.02 | 33 | 1013.6 |
| 20260503224227 | 60 | 15 | 0.0 | 5.2 | 0.00 | 0.12 | 0.02 | 34 | 1013.5 |
| 20260503223729 | 60 | 313 | 0.0 | 5.2 | 0.00 | 0.12 | 0.02 | 32 | 1013.5 |
| 20260503223228 | 60 | 5 | 2.6 | 7.0 | 0.00 | 0.12 | 0.02 | 31 | 1013.4 |
| 20260503222231 | 60 | 9 | 2.6 | 7.8 | 0.00 | 0.12 | 0.02 | 31 | 1013.5 |
| 20260503221727 | 60 | 70 | 0.0 | 3.5 | 0.00 | 0.12 | 0.02 | 32 | 1013.4 |
| 20260503221227 | 60 | 9 | 2.6 | 3.5 | 0.00 | 0.12 | 0.02 | 32 | 1013.5 |
| 20260503220727 | 60 | 326 | 0.9 | 5.2 | 0.00 | 0.12 | 0.02 | 32 | 1013.5 |
| 20260503220228 | 60 | 319 | 0.9 | 7.0 | 0.00 | 0.12 | 0.02 | 31 | 1013.5 |
| 20260503215727 | 60 | 4 | 0.9 | 7.8 | 0.00 | 0.12 | 0.02 | 32 | 1013.5 |
| 20260503215227 | 60 | 67 | 4.3 | 7.0 | 0.00 | 0.12 | 0.02 | 31 | 1013.5 |
| 20260503214728 | 60 | 331 | 1.7 | 7.8 | 0.00 | 0.12 | 0.02 | 31 | 1013.4 |
| 20260503214227 | 61 | 5 | 3.5 | 9.6 | 0.00 | 0.12 | 0.02 | 30 | 1013.5 |
| 20260503213728 | 61 | 25 | 2.6 | 7.8 | 0.00 | 0.12 | 0.02 | 31 | 1013.5 |
| 20260503213227 | 61 | 33 | 6.1 | 7.0 | 0.00 | 0.12 | 0.02 | 29 | 1013.5 |
| 20260503212727 | 61 | 286 | 0.9 | 7.0 | 0.00 | 0.12 | 0.02 | 30 | 1013.5 |
| 20260503212228 | 61 | 11 | 1.7 | 7.0 | 0.00 | 0.12 | 0.02 | 33 | 1013.4 |
| 20260503211727 | 60 | 70 | 3.5 | 7.0 | 0.00 | 0.12 | 0.02 | 31 | 1013.4 |
| 20260503211227 | 60 | 285 | 0.9 | 4.3 | 0.00 | 0.12 | 0.02 | 32 | 1013.4 |
| 20260503210728 | 60 | 11 | 0.0 | 5.2 | 0.00 | 0.12 | 0.02 | 30 | 1013.4 |
| 20260503210228 | 60 | 90 | 0.9 | 7.0 | 0.00 | 0.12 | 0.02 | 32 | 1013.5 |
| 20260503205727 | 61 | 16 | 2.6 | 7.0 | 0.00 | 0.12 | 0.02 | 31 | 1013.6 |
| 20260503205227 | 61 | 1 | 3.5 | 7.0 | 0.00 | 0.12 | 0.02 | 31 | 1013.5 |
| 20260503204727 | 60 | 309 | 5.2 | 9.6 | 0.00 | 0.12 | 0.02 | 32 | 1013.5 |
| 20260503204227 | 60 | 22 | 7.0 | 12.2 | 0.00 | 0.12 | 0.02 | 33 | 1013.5 |
| 20260503203731 | 60 | 67 | 0.0 | 11.3 | 0.00 | 0.12 | 0.02 | 31 | 1013.5 |
| 20260503203227 | 60 | 28 | 4.3 | 9.6 | 0.00 | 0.12 | 0.02 | 35 | 1013.6 |
| 20260503202727 | 60 | 94 | 0.9 | 8.7 | 0.00 | 0.12 | 0.02 | 34 | 1013.6 |
| 20260503202229 | 60 | 198 | 0.0 | 7.8 | 0.00 | 0.12 | 0.02 | 33 | 1013.7 |
| 20260503201727 | 60 | 271 | 7.8 | 12.2 | 0.00 | 0.12 | 0.02 | 31 | 1013.8 |
| 20260503201227 | 60 | 16 | 8.7 | 13.0 | 0.00 | 0.12 | 0.02 | 30 | 1013.8 |
| 20260503200727 | 60 | 316 | 1.7 | 9.6 | 0.00 | 0.12 | 0.02 | 33 | 1013.9 |
| 20260503200227 | 59 | 22 | 3.5 | 10.4 | 0.00 | 0.12 | 0.02 | 36 | 1013.9 |
| 20260503195728 | 59 | 347 | 1.7 | 11.3 | 0.00 | 0.12 | 0.02 | 36 | 1014.0 |
| 20260503195228 | 58 | 91 | 6.1 | 10.4 | 0.00 | 0.12 | 0.02 | 32 | 1014.1 |
| 20260503194727 | 59 | 33 | 2.6 | 13.0 | 0.00 | 0.12 | 0.02 | 35 | 1014.2 |
| 20260503194227 | 59 | 248 | 0.0 | 5.2 | 0.00 | 0.12 | 0.02 | 34 | 1014.2 |
| 20260503193727 | 58 | 345 | 2.6 | 8.7 | 0.00 | 0.12 | 0.02 | 39 | 1014.3 |
| 20260503193227 | 59 | 0 | 1.7 | 11.3 | 0.00 | 0.12 | 0.02 | 34 | 1014.3 |
| 20260503192727 | 59 | 30 | 2.6 | 9.6 | 0.00 | 0.12 | 0.02 | 34 | 1014.3 |
| 20260503192227 | 59 | 47 | 2.6 | 11.3 | 0.00 | 0.12 | 0.02 | 37 | 1014.4 |
| 20260503191727 | 59 | 56 | 0.9 | 7.8 | 0.00 | 0.12 | 0.02 | 38 | 1014.4 |
| 20260503191227 | 59 | 323 | 1.7 | 8.7 | 0.00 | 0.12 | 0.02 | 35 | 1014.4 |
| 20260503190727 | 59 | 330 | 2.6 | 7.0 | 0.00 | 0.12 | 0.02 | 34 | 1014.4 |
| 20260503185727 | 59 | 23 | 7.0 | 10.4 | 0.00 | 0.12 | 0.02 | 35 | 1014.6 |
| 20260503185227 | 59 | 319 | 7.0 | 14.8 | 0.00 | 0.12 | 0.02 | 39 | 1014.6 |
| 20260503184729 | 58 | 70 | 2.6 | 9.6 | 0.00 | 0.12 | 0.02 | 36 | 1014.6 |
| 20260503184228 | 59 | 12 | 4.3 | 13.0 | 0.00 | 0.12 | 0.02 | 36 | 1014.8 |
| 20260503183727 | 59 | 73 | 1.7 | 8.7 | 0.00 | 0.12 | 0.02 | 35 | 1014.8 |
| 20260503183227 | 59 | 30 | 3.5 | 14.8 | 0.00 | 0.12 | 0.02 | 34 | 1014.9 |
| 20260503182728 | 58 | 36 | 0.9 | 9.6 | 0.00 | 0.12 | 0.02 | 40 | 1014.8 |
| 20260503182227 | 58 | 330 | 0.0 | 6.1 | 0.00 | 0.12 | 0.02 | 38 | 1015.0 |
| 20260503181728 | 58 | 61 | 2.6 | 9.6 | 0.00 | 0.12 | 0.02 | 38 | 1014.9 |
| 20260503181227 | 58 | 350 | 1.7 | 7.8 | 0.00 | 0.12 | 0.02 | 39 | 1015.0 |
| 20260503180728 | 57 | 36 | 4.3 | 13.9 | 0.00 | 0.12 | 0.02 | 38 | 1014.9 |
| 20260503180227 | 58 | 11 | 2.6 | 11.3 | 0.00 | 0.12 | 0.02 | 36 | 1015.0 |
| 20260503175727 | 58 | 29 | 0.9 | 12.2 | 0.00 | 0.12 | 0.02 | 35 | 1015.0 |
| 20260503175228 | 58 | 28 | 2.6 | 6.1 | 0.00 | 0.12 | 0.02 | 38 | 1015.0 |
| 20260503174728 | 57 | 12 | 2.6 | 11.3 | 0.00 | 0.12 | 0.02 | 38 | 1015.1 |
| 20260503174237 | 57 | 90 | 3.5 | 13.0 | 0.00 | 0.12 | 0.02 | 38 | 1015.0 |
| 20260503173728 | 56 | 101 | 5.2 | 14.8 | 0.01 | 0.12 | 0.02 | 39 | 1015.0 |
| 20260503173228 | 57 | 18 | 6.1 | 9.6 | 0.01 | 0.12 | 0.02 | 36 | 1015.0 |
| 20260503172728 | 57 | 354 | 6.1 | 13.0 | 0.01 | 0.12 | 0.02 | 40 | 1015.2 |
| 20260503172228 | 57 | 358 | 4.3 | 10.4 | 0.01 | 0.12 | 0.02 | 39 | 1015.2 |
| 20260503171228 | 56 | 90 | 2.6 | 9.6 | 0.01 | 0.12 | 0.02 | 40 | 1015.4 |
| 20260503170728 | 56 | 91 | 3.5 | 12.2 | 0.01 | 0.12 | 0.02 | 39 | 1015.3 |
| 20260503170228 | 56 | 88 | 4.3 | 7.8 | 0.01 | 0.12 | 0.02 | 39 | 1015.3 |
| 20260503150729 | 52 | 26 | 5.2 | 6.1 | 0.00 | 0.12 | 0.01 | 46 | 1015.7 |
| 20260503150229 | 52 | 21 | 3.5 | 9.6 | 0.00 | 0.12 | 0.01 | 46 | 1015.9 |
| 20260503140229 | 49 | 120 | 4.3 | 13.9 | 0.00 | 0.12 | 0.01 | 53 | 1016.2 |
| 20260503131228 | 48 | 75 | 0.9 | 11.3 | 0.00 | 0.12 | 0.01 | 52 | 1016.1 |
| 20260503130728 | 47 | 156 | 5.2 | 10.4 | 0.00 | 0.12 | 0.01 | 52 | 1016.1 |
| 20260503130231 | 48 | 358 | 5.2 | 10.4 | 0.00 | 0.12 | 0.01 | 55 | 1016.0 |
| 20260503110728 | 43 | 29 | 3.5 | 5.2 | 0.00 | 0.12 | 0.01 | 67 | 1015.2 |
| 20260503110228 | 43 | 11 | 1.7 | 7.0 | 0.00 | 0.12 | 0.01 | 67 | 1015.1 |
| 20260503100228 | 41 | 21 | 4.3 | 6.1 | 0.00 | 0.12 | 0.01 | 70 | 1014.2 |
| 20260503090228 | 42 | 337 | 1.7 | 6.1 | 0.00 | 0.12 | 0.01 | 69 | 1013.7 |
| 20260503081228 | 43 | 82 | 0.0 | 4.3 | 0.00 | 0.12 | 0.01 | 69 | 1013.4 |
| 20260503080729 | 43 | 37 | 0.9 | 5.2 | 0.00 | 0.12 | 0.01 | 69 | 1013.4 |
| 20260503080230 | 43 | 22 | 0.0 | 5.2 | 0.00 | 0.12 | 0.01 | 69 | 1013.3 |
| 20260503072731 | 43 | 14 | 0.9 | 5.2 | 0.00 | 0.13 | 0.01 | 67 | 1013.0 |
| 20260503072228 | 43 | 25 | 1.7 | 5.2 | 0.00 | 0.13 | 0.01 | 67 | 1012.9 |
| 20260503071732 | 43 | 21 | 0.0 | 4.3 | 0.00 | 0.13 | 0.01 | 67 | 1012.9 |
| 20260503071230 | 44 | 35 | 0.0 | 2.6 | 0.00 | 0.13 | 0.01 | 67 | 1012.9 |
| 20260503070728 | 44 | 35 | 0.0 | 6.1 | 0.00 | 0.13 | 0.01 | 66 | 1012.8 |
| 20260503070228 | 44 | 25 | 0.0 | 6.1 | 0.00 | 0.13 | 0.01 | 66 | 1012.7 |
| 20260503060230 | 45 | 19 | 6.1 | 6.1 | 0.00 | 0.13 | 0.01 | 67 | 1012.8 |
| 20260503054728 | 45 | 26 | 0.0 | 5.2 | 0.00 | 0.13 | 0.01 | 67 | 1012.9 |
| 20260503054229 | 45 | 5 | 2.6 | 4.3 | 0.00 | 0.13 | 0.01 | 67 | 1012.9 |
| 20260503053730 | 45 | 32 | 0.9 | 5.2 | 0.00 | 0.13 | 0.01 | 67 | 1012.9 |